Location: Kielce
(50.8833°N, 20.6167°E)
Time: 21:45:50
(UTC+02:00)

SR - Pass Details

Date: 21 April 2021
Orbit: 573 x 882 km, 66.7° (Epoch: 09 May)

Event Time Altitude Azimuth Distance (km) Brightness Sun altitude
Rises 11:11:43 0° 283° (WNW) 3,447 ? 47.5°
Reaches altitude 10° 11:14:58 10° 301° (WNW) 2,535 ? 47.7°
Maximum altitude 11:19:06 19° 346° (NNW) 1,974 ? 48.1°
Drops below altitude 10° 11:23:16 10° 30° (NNE) 2,543 ? 48.4°
Sets 11:26:32 0° 48° (NE) 3,462 ? 48.6°
